[Iaude] MPEC C192: 2024 CL6 [a=2.45,e=0.53,i=6.2,H=23.7]
    mpec at cfa.harvard.edu 
    mpec at cfa.harvard.edu
       
    Thu Feb 15 15:27:54 EST 2024
    
    
  
M.P.E.C. 2024-C192                            Issued 2024 February 15, 20:26 UT
     The Minor Planet Electronic Circulars contain information on unusual
         minor planets, routine data on comets and natural satellites,
         and occasional editorial announcements.  They are published
    on behalf of Division F of the International Astronomical Union by the
          Minor Planet Center, Smithsonian Astrophysical Observatory,
                          Cambridge, MA 02138, U.S.A.
			  
             Prepared using the Tamkin Foundation Computer Network
                              MPC at CFA.HARVARD.EDU
            URL https://www.minorplanetcenter.net/    ISSN 1523-6714
                                    2024 CL6                                    
Observations:
     K24C06L  C2024 01 07.52366608 13 22.728+06 42 53.95         23.03GVEC192F51
     K24C06L  C2024 01 07.53511108 13 23.173+06 42 54.20         23.31GVEC192F51
     K24C06L  C2024 02 01.34875008 38 18.057+10 13 59.61         20.66GVEC192F52
     K24C06L  C2024 02 01.37209608 38 19.809+10 14 24.99         20.56GVEC192F52
     K24C06L  C2024 02 01.38383408 38 20.657+10 14 38.03         21.90GVEC192F52
     K24C06L  C2024 02 10.33629208 54 19.387+13 27 22.52         21.19GVEC192F52
     K24C06L  C2024 02 10.34935708 54 20.863+13 27 42.42         21.34GVEC192F52
     K24C06L* C2024 02 14.34000009 03 39.584+15 11 47.10         21.02wXEC192F52
     K24C06L  C2024 02 14.36328809 03 42.700+15 12 25.82         21.17wXEC192F52
     K24C06L  C2024 02 14.37494809 03 44.277+15 12 44.84         20.61wXEC192F52
     K24C06L  C2024 02 14.51009709 04 02.491+15 16 23.59         20.51GVEC192F51
     K24C06L  C2024 02 14.51074609 04 02.579+15 16 24.65         20.46GVEC192F51
     K24C06L KC2024 02 14.88117009 05 02.09 +15 26 14.6          21.2 GVEC192L01
     K24C06L KC2024 02 14.88369609 05 02.43 +15 26 18.8          21.3 GVEC192L01
     K24C06L KC2024 02 14.88622209 05 02.81 +15 26 21.9          21.3 GVEC192L01
     K24C06L  C2024 02 15.15993109 05 46.502+15 33 59.76         20.5 GVEC192H01
     K24C06L  C2024 02 15.16314609 05 46.964+15 34 05.13         20.7 GVEC192H01
     K24C06L  C2024 02 15.17207809 05 48.252+15 34 20.29         21.0 GVEC192H01
     K24C06L  C2024 02 15.17651109 05 48.888+15 34 27.76         21.1 GVEC192H01
     K24C06L  C2024 02 15.30445109 06 09.325+15 38 08.82         21.55wXEC192F51
     K24C06L  C2024 02 15.31576509 06 10.945+15 38 28.19         21.18wXEC192F51
     K24C06L  C2024 02 15.33017409 06 12.973+15 38 52.35         21.58wXEC192F51
     K24C06L KC2024 02 15.36814 09 06 16.16 +15 39 47.0          20.6 RVEC192691
     K24C06L KC2024 02 15.37933 09 06 17.86 +15 40 04.9          20.2 RVEC192691
     K24C06L KC2024 02 15.39052 09 06 19.40 +15 40 23.4          20.9 RVEC192691
Observer details:
691 Steward Observatory, Kitt Peak-Spacewatch.  Observer J. V. Scotti.  0.9-m
    f/3 reflector + CCD.
F51 Pan-STARRS 1, Haleakala.  Observers J. Herman, T. Lowe, P. Minguez, A.
    Schultz, I. Smith.  Measurers K. Chambers, T. de Boer, J. Fairlamb, H.
    Gao, M. Huber, C.-C. Lin, E. Magnier, Y. Ramanjooloo, R. Wainscoat, R.
    Weryk.  1.8-m Ritchey-Chretien + CCD.
F52 Pan-STARRS 2, Haleakala.  Observers J. Herman, T. Lowe, P. Minguez, A.
    Schultz, I. Smith.  Measurers K. Chambers, T. de Boer, J. Fairlamb, H.
    Gao, M. Huber, C.-C. Lin, E. Magnier, Y. Ramanjooloo, R. Wainscoat, R.
    Weryk.  1.8-m Ritchey-Chretien + CCD.
H01 Magdalena Ridge Observatory, Socorro.  Observers W. H. Ryan, E. V. Ryan.
    Measurer W. H. Ryan.  2.4-m f/8.9 Ritchey-Chretien + CCD.
L01 Visnjan Observatory, Tican.  Observer K. Korlevic.  1.0-m f/2.9 reflector
    + CCD.
Orbital elements:
2024 CL6                                                 Earth MOID = 0.1661 AU
Epoch 2024 Mar. 31.0 TT = JDT 2460400.5                 MPC                     
M   6.50912              (2000.0)            P               Q                  
n   0.25719932     Peri.   17.42722     -0.95397631     -0.29348863             
a   2.4488161      Node   145.31458     +0.26063018     -0.91302286             
e   0.5288903      Incl.    6.21350     +0.14832774     -0.28329081             
P   3.83           H   23.79          G   0.15           U   6                  
Residuals in seconds of arc
240107 F51  0.1-  0.0     240214 F52  0.2-  0.0     240215 H01  0.1+  0.0
240107 F51  0.0   0.0     240214 F51  0.1+  0.0     240215 F51  0.1+  0.0
240201 F52  0.0   0.0     240214 F51  0.1+  0.1+    240215 F51  0.2+  0.1+
240201 F52  0.2+  0.1-    240214 L01  0.1-  0.1+    240215 F51  0.1-  0.1-
240201 F52  0.1-  0.2+    240214 L01  0.4-  0.1+    240215 691  0.5-  0.5+
240210 F52  0.1-  0.1-    240214 L01  0.0   1.0-    240215 691  0.9+  0.2+
240210 F52  0.1-  0.0     240215 H01  0.1+  0.1+    240215 691  0.2-  0.6+
240214 F52  0.1-  0.0     240215 H01  0.0   0.0
240214 F52  0.4-  0.2+    240215 H01  0.1+  0.1+
Ephemeris:
2024 CL6                 a,e,i = 2.45, 0.53, 6                   q = 1.1537
Date    TT    R. A. (2000) Decl.     Delta      r    Elong.  Phase     V
2024 01 16    08 20 15.5 +07 07 33   0.3115  1.2859   163.9    12.2    22.5
...
2024 01 31    08 36 21.3 +09 50 43   0.2382  1.2211   171.4     6.9    21.6
...
2024 02 08    08 49 31.9 +12 31 14   0.2100  1.1943   171.4     7.1    21.3
...
2024 02 14    09 02 46.9 +15 02 39   0.1939  1.1784   169.2     9.1    21.2
2024 02 15    09 05 19.6 +15 29 52   0.1916  1.1761   168.7     9.5    21.2
2024 02 16    09 07 58.5 +15 57 30   0.1895  1.1739   168.2     9.9    21.2
...
2024 02 22    09 26 04.0 +18 48 19   0.1793  1.1631   165.0    12.7    21.1
...
2024 03 01    09 55 48.8 +22 26 52   0.1726  1.1549   160.5    16.6    21.2
...
2024 03 16    11 01 13.5 +26 30 51   0.1817  1.1599   153.2    22.7    21.5
A. U. Tomatic                (C) Copyright 2024 MPC           M.P.E.C. 2024-C192
    
    
More information about the Iaude
mailing list